User: anonymous   Login
Location: Mentone
(34.5413°N, 85.5351°W)
Time: 22:56:13
(UTC-06:00)
Language:

Uosat F - Orbit

View from above orbital plane
View from above orbital plane
View from above satellite
View from above satellite

Ground track
Ground track

The orbit data is extracted from the following two-line orbital elements,

1 21575U 91050B   16343.86741493  .00000045  00000-0  28525-4 0  9999
2 21575  98.7629 349.6793 0007970 140.2654 219.9119 14.40774182333873
Epoch (UTC): 08 December 2016 20:49:04
Eccentricity: 0.0007970
inclination: 98.7629°
perigee height: 750 km
apogee height: 761 km
right ascension of ascending node: 349.6793°
argument of perigee: 140.2654°
revolutions per day: 14.40774182
mean anomaly at epoch: 219.9119°
orbit number at epoch: 33387

The dashed part of the orbit path shows where the satellite is in the earth's shadow,  

DLR